This is the latest recevied weather packets stored in our database for station/object KO4WIL-13. If no packets are shown the sender has not sent any weather packets the latest 1 day(s).
| Time | Temp. | Humidity | Pressure | Rain* | Wind** | Luminosity | Snow |
|---|---|---|---|---|---|---|---|
| 1777986421 | 17.78° C | 63% | 967 hPa | 0 mm | 0 m/s | - | - |
| 1777986119 | 17.22° C | 63% | 967 hPa | 0 mm | 0 m/s | - | - |
| 1777985817 | 16.67° C | 62% | 966.9 hPa | 0 mm | 0 m/s | - | - |
| 1777985515 | 16.11° C | 67% | 966.9 hPa | 0 mm | 0 m/s | - | - |
| 1777985213 | 16.11° C | 68% | 966.9 hPa | 0 mm | 0 m/s | - | - |
| 1777984911 | 16.11° C | 69% | 966.9 hPa | 0 mm | 0 m/s | - | - |
| 1777984609 | 16.11° C | 69% | 966.8 hPa | 0 mm | 0 m/s | - | - |
| 1777984307 | 16.67° C | 65% | 966.6 hPa | 0 mm | 0 m/s | - | - |
| 1777984005 | 16.67° C | 66% | 966.6 hPa | 0 mm | 0 m/s | - | - |
| 1777983703 | 16.67° C | 69% | 966.6 hPa | 0 mm | 0 m/s | - | - |
| 1777983401 | 16.11° C | 70% | 966.6 hPa | 0 mm | 0 m/s | - | - |
| 1777983099 | 15.56° C | 72% | 966.5 hPa | 0 mm | 0 m/s | - | - |
| 1777982797 | 15.56° C | 71% | 966.4 hPa | 0 mm | 0 m/s | - | - |
| 1777982495 | 15° C | 72% | 966.4 hPa | 0 mm | 0 m/s | - | - |
| 1777982193 | 15° C | 74% | 966.5 hPa | 0 mm | 0 m/s | - | - |
| 1777981891 | 15° C | 76% | 966.4 hPa | 0 mm | 0 m/s | - | - |
| 1777981589 | 14.44° C | 75% | 966.3 hPa | 0 mm | 0 m/s | - | - |
| 1777981287 | 13.89° C | 74% | 966.5 hPa | 0 mm | 0 m/s | - | - |
| 1777980985 | 13.89° C | 73% | 966.4 hPa | 0 mm | 0 m/s | - | - |
| 1777980683 | 12.78° C | 73% | 966.4 hPa | 0 mm | 0 m/s | - | - |
| 1777980381 | 12.78° C | 74% | 966.4 hPa | 0 mm | 0 m/s | - | - |
| 1777980079 | 12.22° C | 75% | 966.1 hPa | 0 mm | 0 m/s | - | - |
| 1777979777 | 12.22° C | 75% | 966 hPa | 0 mm | 0 m/s | - | - |
| 1777979475 | 11.67° C | 75% | 965.8 hPa | 0 mm | 0 m/s | - | - |
| 1777979173 | 11.67° C | 76% | 965.8 hPa | 0 mm | 0 m/s | - | - |
* Rain latest hour (hover to see other rain measurements)
** Current wind speed in m/s (hover to see current wind gust speed)